{"data":{"norad_id":50819,"epoch":"2026-05-25T03:27:01.640736Z","epoch_age_seconds":65692,"freshness":"FRESH","line1":"1 50819U 22001S   26145.14376899 -.00000133  00000+0  97028-5 0  9991","line2":"2 50819  53.2115 185.9059 0001037  95.9568 264.1542 15.08834612241955","mean_motion":15.08834612,"eccentricity":0.0001037,"inclination_deg":53.2115,"raan_deg":185.9059,"arg_perigee_deg":95.9568,"mean_anomaly_deg":264.1542,"bstar":9.7028e-6,"rev_number":24195,"period_min":95.437895482212,"perigee_km":539.04247206944,"apogee_km":540.47724387778,"semimajor_km":6917.8968579736,"source":"CELESTRAK","updated_at":"2026-05-25T13:38:16.877122Z"}}